Weather observations for the past three days for
Tillamook, Tillamook Airport
Imperial (Metric)
Date Time (pdt) Wind (mph) Vis. (mi.) Weather Sky Cond. Temperature (ºF) Relative Humidity Wind Chill (°F) Heat Index (°F) Pressure Precipitation (in)
Air Dwpt 6 hour altimeter (in) sea level (mb) 1 hr 3 hr 6 hr
Max. Min.
21 14:55 NW 18 10.00 Mostly Cloudy BKN021 66.2 66.2 100% 30.15 0.0
21 14:35 NW 17 G 24 10.00 Fair CLR 66.2 66.2 100% 30.15 0.0
21 14:15 NW 18 10.00 Fair CLR 66.2 66.2 100% 30.15 0.0
21 13:55 NW 16 G 22 10.00 Fair CLR 66.2 66.2 100% 30.15 0.0
21 13:35 NW 18 10.00 Mostly Cloudy BKN019 68 68 100% 30.15 0.0
21 13:15 NW 12 10.00 Mostly Cloudy BKN019 68 68 100% 30.14 0.0
21 12:55 Vrbl 5 G 12 10.00 Partly Cloudy FEW018 SCT023 68 68 100% 30.14 0.0
21 12:35 NW 10 G 17 10.00 Overcast OVC024 64.4 64.4 100% 30.15 0.0
21 12:15 NW 13 10.00 Overcast BKN019 OVC025 64.4 64.4 100% 30.16 0.0
21 11:55 NW 14 10.00 Overcast FEW007 OVC018 62.6 62.6 100% 30.16 0.0
21 11:35 NW 10 10.00 Overcast SCT007 OVC017 60.8 60.8 100% 30.17 0.0
21 11:15 NW 13 G 20 9.00 Overcast BKN006 BKN012 OVC021 60.8 60.8 100% 30.17 0.0
21 10:55 NW 13 2.50 Unknown Precip Fog/Mist OVC005 60.8 59 94% 30.17 0.0
21 10:35 NW 12 4.00 Unknown Precip Fog/Mist OVC006 60.8 59 94% 30.17 0.0
21 10:15 W 8 10.00 Overcast OVC007 59 59 100% 30.16 0.0
21 09:55 W 10 10.00 Overcast OVC007 59 59 100% 30.16 0.0
21 09:35 NW 12 10.00 Overcast BKN007 OVC011 59 59 100% 30.16 0.0
21 09:15 NW 10 10.00 Overcast BKN009 BKN014 OVC018 59 59 100% 30.15 0.0
21 08:55 SW 5 10.00 Mostly Cloudy FEW012 BKN018 60.8 60.8 100% 30.14 0.0
21 08:35 SW 7 10.00 Overcast BKN013 OVC017 59 59 100% 30.14 0.0
21 08:15 W 8 10.00 Overcast OVC012 59 59 100% 30.13 0.0
21 07:55 Calm 10.00 Overcast BKN010 OVC014 59 59 100% 30.11 0.0
21 07:35 Calm 10.00 Overcast FEW008 OVC013 59 59 100% 30.11 0.0
21 07:15 Calm 10.00 Thunderstorm in Vicinity OVC013 59 59 100% 30.12 0.0
21 06:55 SE 6 7.00 Light Rain SCT013 OVC019 59 59 100% 30.14 0.0 0.05
21 06:35 Vrbl 5 9.00 Thunderstorm in Vicinity Rain BKN013 BKN018 OVC070 59 59 100% 30.09 0.0
21 06:15 NW 13 G 20 8.00 Light Rain SCT013 BKN034 OVC070 59 59 100% 30.02 0.0
21 05:55 NW 9 10.00 Mostly Cloudy FEW012 SCT035 BKN045 59 59 100% 30.05 0.0 0.01
21 05:35 NE 13 10.00 Overcast BKN011 BKN060 OVC110 59 59 100% 30.06 0.0
21 05:15 SE 8 10.00 Overcast SCT015 BKN050 OVC095 59 59 100% 30.14 0.0
21 04:55 S 16 G 22 9.00 Overcast SCT010 BKN048 OVC110 59 59 100% 30.1 0.0
21 04:35 SW 6 10.00 Overcast BKN009 OVC120 59 59 100% 30.02 0.0
21 04:15 SE 3 10.00 Overcast OVC007 57.2 57.2 100% 30.04 0.0
21 03:55 NE 6 10.00 Overcast OVC006 59 59 100% 30.05 0.0
21 03:35 N 12 9.00 Light Rain BKN007 OVC010 59 59 100% 30.1 0.0
21 03:15 NW 6 9.00 Light Rain OVC008 59 59 100% 30.16 0.0
21 02:55 W 6 10.00 Overcast OVC007 59 59 100% 30.18 0.0
21 02:35 N 8 10.00 Overcast OVC008 59 59 100% 30.12 0.0
21 02:15 SW 5 9.00 Thunderstorm in Vicinity Rain OVC009 59 59 100% 30.14 0.0
21 01:55 SW 7 10.00 Overcast OVC008 59 59 100% 30.12 0.0
21 01:35 SW 5 10.00 Overcast OVC007 59 59 100% 30.1 0.0
21 01:15 S 3 10.00 Overcast OVC006 59 59 100% 30.09 0.0
21 00:55 SW 5 10.00 Overcast OVC006 59 59 100% 30.08 0.0
21 00:35 Vrbl 5 10.00 Overcast OVC006 59 59 100% 30.08 0.0
21 00:15 SW 3 10.00 Overcast OVC006 59 59 100% 30.08 0.0
20 23:55 SW 5 10.00 Overcast OVC007 59 59 100% 30.09 0.0
20 23:35 SW 5 10.00 Overcast OVC007 59 59 100% 30.09 0.0
20 23:15 Calm 10.00 Overcast OVC007 59 59 100% 30.09 0.0
20 22:55 W 3 10.00 Overcast OVC007 59 59 100% 30.09 0.0
20 22:35 Calm 10.00 Overcast OVC007 59 59 100% 30.09 0.0
20 22:15 W 3 10.00 Overcast OVC007 59 59 100% 30.09 0.0
20 21:55 W 5 10.00 Overcast OVC007 59 59 100% 30.09 0.0
20 21:35 W 6 10.00 Overcast OVC008 60.8 60.8 100% 30.09 0.0
20 21:15 W 3 10.00 Overcast OVC008 60.8 60.8 100% 30.09 0.0
20 20:55 NW 8 10.00 Overcast OVC008 60.8 60.8 100% 30.08 0.0
20 20:35 W 3 10.00 Overcast OVC010 60.8 60.8 100% 30.08 0.0
20 20:15 NW 6 10.00 Overcast OVC009 60.8 60.8 100% 30.08 0.0
20 19:55 NW 7 10.00 Overcast BKN009 OVC016 62.6 62.6 100% 30.08 0.0
20 19:35 W 7 10.00 Overcast BKN009 OVC016 62.6 62.6 100% 30.09 0.0
20 19:15 SW 7 10.00 Overcast OVC010 64.4 64.4 100% 30.09 0.0
20 18:55 W 9 10.00 Overcast OVC012 64.4 64.4 100% 30.08 0.0
20 18:35 W 7 10.00 Mostly Cloudy BKN013 66.2 66.2 100% 30.08 0.0
20 18:15 Vrbl 6 G 13 10.00 Mostly Cloudy BKN013 66.2 66.2 100% 30.08 0.0
20 17:55 Vrbl 7 10.00 Mostly Cloudy BKN013 68 68 100% 30.08 0.0
20 17:35 Vrbl 6 G 16 10.00 Mostly Cloudy BKN013 68 68 100% 30.09 0.0
20 17:15 NW 8 10.00 A Few Clouds FEW015 68 68 100% 30.09 0.0
20 16:55 W 8 10.00 A Few Clouds FEW014 68 68 100% 30.09 0.0
20 16:35 NW 10 10.00 Fair CLR 68 68 100% 30.1 0.0
20 16:15 NW 8 10.00 Fair CLR 68 68 100% 30.1 0.0
20 15:55 NW 10 10.00 A Few Clouds FEW015 68 68 100% 30.1 0.0
20 15:35 N 13 10.00 Fair CLR 68 68 100% 30.11 0.0
20 15:15 NW 14 10.00 A Few Clouds FEW017 68 68 100% 30.11 0.0
20 14:55 NW 10 10.00 A Few Clouds FEW017 69.8 69.8 100% 30.11 0.0
20 14:35 NW 12 10.00 Fair CLR 69.8 69.8 100% 30.12 0.0
20 14:15 NW 12 10.00 Fair CLR 69.8 69.8 100% 30.12 0.0
20 13:55 N 10 10.00 Fair CLR 68 68 100% 30.13 0.0
20 13:35 NW 9 10.00 Partly Cloudy SCT015 68 68 100% 30.13 0.0
20 13:15 Vrbl 7 10.00 Mostly Cloudy BKN015 68 68 100% 30.14 0.0
20 12:55 W 9 10.00 Mostly Cloudy BKN015 69.8 69.8 100% 30.14 0.0
20 12:35 W 7 10.00 Overcast OVC015 69.8 69.8 100% 30.14 0.0
20 12:15 Calm 10.00 Overcast OVC013 66.2 66.2 100% 30.14 0.0
20 11:55 Calm 10.00 Overcast OVC012 64.4 64.4 100% 30.15 0.0
20 11:35 Vrbl 6 10.00 Overcast OVC011 64.4 64.4 100% 30.15 0.0
20 11:15 Calm 10.00 Overcast OVC009 62.6 62.6 100% 30.15 0.0
20 10:55 Calm 10.00 Overcast OVC009 62.6 62.6 100% 30.16 0.0
20 10:35 Calm 10.00 Overcast OVC007 62.6 62.6 100% 30.16 0.0
20 10:15 Calm 10.00 Overcast BKN005 OVC011 60.8 60.8 100% 30.16 0.0
20 09:55 W 5 10.00 Overcast OVC006 60.8 60.8 100% 30.17 0.0
20 09:35 Calm 10.00 Overcast OVC005 59 59 100% 30.17 0.0
20 09:15 Calm 10.00 Overcast OVC004 59 59 100% 30.18 0.0
20 08:55 Calm 5.00 Fog/Mist OVC004 59 59 100% 30.18 0.0
20 08:35 Calm 9.00 Overcast OVC004 57.2 57.2 100% 30.17 0.0
20 08:15 SE 3 5.00 Fog/Mist OVC004 57.2 57.2 100% 30.17 0.0
20 07:55 Calm 4.00 Fog/Mist OVC004 57.2 57.2 100% 30.17 0.0
20 07:35 Calm 4.00 Fog/Mist OVC004 57.2 57.2 100% 30.16 0.0
20 07:15 Calm 1.75 Fog/Mist OVC003 57.2 57.2 100% 30.16 0.0
20 06:55 Calm 0.75 Unknown Precip Fog/Mist OVC003 57.2 57.2 100% 30.16 0.0
20 06:35 Calm 1.25 Unknown Precip Fog/Mist OVC003 57.2 57.2 100% 30.16 0.0
20 06:15 Calm 5.00 Fog/Mist OVC004 57.2 57.2 100% 30.17 0.0
20 05:55 NE 3 1.50 Fog/Mist OVC003 57.2 57.2 100% 30.17 0.0
20 05:35 Calm 1.75 Fog/Mist OVC003 57.2 57.2 100% 30.17 0.0
20 05:15 Calm 3.00 Fog/Mist OVC003 57.2 57.2 100% 30.17 0.0
20 04:55 Calm 3.00 Fog/Mist OVC004 57.2 57.2 100% 30.17 0.0
20 04:35 Calm 2.00 Fog/Mist OVC003 57.2 57.2 100% 30.17 0.0
20 04:15 SW 3 1.75 Fog/Mist OVC003 57.2 57.2 100% 30.17 0.0
20 03:55 Calm 1.25 Unknown Precip Fog/Mist OVC003 57.2 57.2 100% 30.18 0.0
20 03:35 Calm 2.50 Fog/Mist OVC004 57.2 57.2 100% 30.18 0.0
20 03:15 W 3 6.00 Fog/Mist OVC004 57.2 57.2 100% 30.18 0.0
20 02:55 W 5 4.00 Fog/Mist OVC003 57.2 57.2 100% 30.18 0.0
20 02:35 Calm 2.00 Fog/Mist OVC003 57.2 57.2 100% 30.18 0.0
20 02:15 SW 3 2.50 Fog/Mist OVC003 57.2 57.2 100% 30.17 0.0
20 01:55 Calm 3.00 Fog/Mist OVC003 57.2 57.2 100% 30.17 0.0
20 01:35 Calm 7.00 Overcast OVC003 57.2 57.2 100% 30.18 0.0
20 01:15 Calm 9.00 Overcast OVC003 59 59 100% 30.18 0.0
20 00:55 Calm 9.00 Overcast OVC003 59 59 100% 30.18 0.0
20 00:35 Calm 10.00 Overcast OVC004 59 59 100% 30.18 0.0
20 00:15 Calm 10.00 Overcast OVC004 59 59 100% 30.18 0.0
19 23:55 Calm 10.00 Overcast OVC004 59 59 100% 30.18 0.0
19 23:35 Calm 10.00 Overcast OVC004 59 59 100% 30.18 0.0
19 23:15 Calm 10.00 Overcast OVC005 59 59 100% 30.18 0.0
19 22:55 Calm 10.00 Overcast OVC005 59 59 100% 30.18 0.0
19 22:35 Calm 10.00 Overcast OVC005 59 59 100% 30.19 0.0
19 22:15 Calm 10.00 Overcast OVC005 59 59 100% 30.19 0.0
19 21:55 Calm 10.00 Overcast OVC005 59 59 100% 30.19 0.0
19 21:35 W 5 10.00 Overcast OVC006 59 59 100% 30.19 0.0
19 21:15 Calm 10.00 Overcast OVC006 59 59 100% 30.19 0.0
19 20:55 Calm 10.00 Overcast OVC007 59 59 100% 30.18 0.0
19 20:35 W 5 10.00 Overcast OVC007 59 59 100% 30.18 0.0
19 20:15 Calm 10.00 Overcast OVC008 60.8 60.8 100% 30.18 0.0
19 19:55 NW 8 10.00 Partly Cloudy SCT011 62.6 62.6 100% 30.18 0.0
19 19:35 W 7 10.00 Fair CLR 64.4 64.4 100% 30.18 0.0
19 19:15 W 8 10.00 Fair CLR 64.4 64.4 100% 30.17 0.0
19 18:55 W 6 10.00 Fair CLR 66.2 66.2 100% 30.17 0.0
19 18:35 W 7 10.00 Fair CLR 68 68 100% 30.18 0.0
19 18:15 W 7 10.00 Fair CLR 69.8 69.8 100% 30.17 0.0
19 17:55 N 9 9.00 Fair CLR 69.8 68 94% 30.17 0.0
19 17:35 N 10 G 16 10.00 Fair CLR 71.6 68 88% 30.17 0.0
19 17:15 N 12 10.00 Fair CLR 69.8 68 94% 30.18 0.0
19 16:55 N 13 10.00 Fair CLR 69.8 68 94% 30.18 0.0
19 16:35 N 10 10.00 Fair CLR 71.6 66.2 83% 30.19 0.0
19 16:15 N 12 10.00 Fair CLR 71.6 68 88% 30.19 0.0
19 15:55 N 8 10.00 Fair CLR 71.6 68 88% 30.19 0.0
19 15:35 NW 10 10.00 Fair CLR 71.6 68 88% 30.19 0.0
19 15:15 Vrbl 7 10.00 Fair CLR 69.8 68 94% 30.2 0.0
19 14:55 Vrbl 5 G 12 10.00 Fair CLR 69.8 69.8 100% 30.2 0.0
19 14:35 N 8 10.00 Fair CLR 69.8 69.8 100% 30.2 0.0
19 14:15 NW 12 10.00 NULL NULL 69.8 69.8 100% 30.2 0.0
19 13:55 NW 9 0.00 NULL NULL 0 0 0% 30.2 0.0
19 13:15 NW 7 10.00 Fair CLR 71.6 69.8 94% 30.2 0.0
19 12:55 NW 8 10.00 NULL NULL 69.8 69.8 100% 30.2 0.0 0.1
19 11:55 N 7 0.15 Thunderstorm Fog VV000 69.8 69.8 100% 30.2 0.0
19 11:35 Vrbl 7 0.00 NULL NULL 69.8 69.8 100% 30.21 0.0
19 11:15 Vrbl 3 0.00 NULL NULL 68 68 100% 30.21 0.0
19 10:55 Vrbl 6 10.00 Fair CLR 68 68 100% 30.21 0.0
19 10:35 Vrbl 5 10.00 A Few Clouds FEW015 66.2 66.2 100% 30.21 0.0
19 10:15 Calm 10.00 Mostly Cloudy BKN014 66.2 66.2 100% 30.21 0.0
19 09:55 Calm 9.00 A Few Clouds FEW013 64.4 64.4 100% 30.22 0.0
19 09:35 Calm 10.00 A Few Clouds FEW012 64.4 64.4 100% 30.22 0.0
19 09:15 Calm 10.00 A Few Clouds FEW012 62.6 62.6 100% 30.22 0.0
19 08:55 Calm 10.00 Fair CLR 60.8 60.8 100% 30.22 0.0
19 08:35 Calm 10.00 Partly Cloudy SCT007 60.8 60.8 100% 30.22 0.0
19 07:55 Calm 10.00 Overcast OVC006 57.2 57.2 100% 30.21 0.0
19 07:35 Calm 10.00 Overcast OVC007 57.2 57.2 100% 30.21 0.0
19 07:15 Calm 10.00 Overcast FEW003 OVC008 55.4 55.4 100% 30.21 0.0
19 06:55 Calm 2.50 Fog/Mist OVC006 55.4 55.4 100% 30.2 0.0
19 06:35 SE 5 4.00 Fog/Mist OVC006 55.4 55.4 100% 30.2 0.0
19 06:15 S 5 10.00 Overcast OVC004 55.4 55.4 100% 30.2 0.0
19 05:55 Calm 9.00 Overcast OVC003 55.4 55.4 100% 30.2 0.0
19 05:35 S 5 4.00 Fog/Mist OVC003 55.4 55.4 100% 30.19 0.0
19 05:15 S 5 10.00 Overcast OVC004 57.2 57.2 100% 30.19 0.0
19 04:55 S 5 10.00 Overcast OVC005 57.2 57.2 100% 30.19 0.0
19 04:35 Calm 10.00 Overcast OVC005 57.2 57.2 100% 30.19 0.0
19 04:15 S 3 10.00 Overcast OVC004 57.2 57.2 100% 30.18 0.0
19 03:55 SE 3 10.00 Overcast OVC004 57.2 57.2 100% 30.19 0.0
19 03:35 S 3 10.00 Overcast OVC004 57.2 57.2 100% 30.18 0.0
19 03:15 S 5 10.00 Overcast OVC004 57.2 57.2 100% 30.18 0.0
19 02:55 Calm 10.00 Overcast OVC004 57.2 57.2 100% 30.18 0.0
19 02:35 Calm 5.00 Fog/Mist OVC004 57.2 57.2 100% 30.18 0.0
19 02:15 Calm 7.00 Overcast OVC004 57.2 57.2 100% 30.18 0.0
19 01:55 Calm 6.00 Fog/Mist OVC004 57.2 57.2 100% 30.19 0.0
19 01:35 W 3 6.00 Fog/Mist OVC003 57.2 57.2 100% 30.19 0.0
19 01:15 W 3 8.00 Overcast OVC003 57.2 57.2 100% 30.19 0.0
19 00:55 W 5 9.00 Overcast OVC003 59 59 100% 30.19 0.0
19 00:35 W 5 10.00 Overcast OVC004 59 57.2 94% 30.18 0.0
19 00:15 Calm 6.00 Fog/Mist OVC003 59 59 100% 30.17 0.0
18 23:55 Calm 10.00 Overcast OVC004 59 59 100% 30.17 0.0
18 23:35 SW 3 10.00 Overcast OVC004 59 59 100% 30.18 0.0
18 23:15 W 5 10.00 Overcast OVC004 59 59 100% 30.18 0.0
18 22:55 W 5 10.00 Overcast OVC004 59 59 100% 30.17 0.0
18 22:35 Calm 10.00 Overcast OVC004 59 59 100% 30.16 0.0
18 22:15 W 5 10.00 Overcast OVC005 59 59 100% 30.16 0.0
18 21:55 Calm 10.00 Overcast OVC005 59 59 100% 30.16 0.0
18 21:35 Calm 10.00 Overcast OVC005 59 59 100% 30.16 0.0
18 21:15 Calm 10.00 Overcast OVC005 59 59 100% 30.15 0.0
18 20:55 Calm 10.00 Overcast OVC006 59 59 100% 30.15 0.0
18 19:55 W 9 10.00 Fair CLR 60.8 60.8 100% 30.14 0.0
18 19:35 W 9 10.00 Fair CLR 62.6 62.6 100% 30.13 0.0
18 19:15 W 9 10.00 Fair CLR 64.4 64.4 100% 30.13 0.0
18 18:55 W 9 10.00 Fair CLR 66.2 66.2 100% 30.12 0.0
18 18:35 W 12 10.00 Fair CLR 68 68 100% 30.12 0.0
18 18:15 W 12 10.00 Fair CLR 69.8 68 94% 30.12 0.0
18 17:55 NW 8 10.00 Fair CLR 69.8 66.2 88% 30.12 0.0
18 17:35 W 8 10.00 Fair CLR 68 66.2 94% 30.13 0.0
18 17:15 W 10 10.00 Fair CLR 69.8 66.2 88% 30.13 0.0
18 16:55 W 7 10.00 Fair CLR 69.8 66.2 88% 30.13 0.0
18 16:35 W 12 10.00 Fair CLR 68 66.2 94% 30.14 0.0
18 16:15 W 10 10.00 Fair CLR 69.8 64.4 83% 30.14 0.0
18 15:55 NW 12 10.00 Fair CLR 69.8 64.4 83% 30.14 0.0
18 15:35 NW 10 10.00 Fair CLR 69.8 64.4 83% 30.14 0.0
18 15:15 NW 12 10.00 Fair CLR 69.8 64.4 83% 30.14 0.0
Date Time (pdt) Wind (mph) Vis. (mi.) Weather Sky Cond. Air Dwpt Max. Min. Relative Humidity Wind Chill (°F) Heat Index (°F) altimeter (in) sea level (mb) 1 hr 3 hr 6 hr
6 hour
Temperature (ºF) Pressure Precipitation (in)